Tracking 32523 objects as of 12-Dec-2025
HD Live streaming from Space Station
objects crossing your sky now

NOAA 16 DEB

Track NOAA 16 DEB now!
10-day predictions


NORAD ID: 41356
Int'l Code: 2000-055HZ
Perigee: 798.8 km
Apogee: 852.6 km
Inclination: 98.8 °
Period: 101.3 minutes
Semi major axis: 7196 km
RCS: Unknown
Launch date: September 21, 2000
Source: United States (US)
Launch site: AIR FORCE WESTERN TEST RANGE (AFWTR)

Note: This is SATELLITE DEBRIS
Your satellite tracking list
Your tracking list is empty




NASA's NSSDC Master Catalog

Two Line Element Set (TLE):
1 41356U 00055HZ  25344.09485583  .00005757  00000-0  26049-2 0  9996
2 41356  98.7553  36.0694 0037322 322.5297  37.3279 14.22013234510484
Source of the keplerian elements: AFSPC